Time,TemperatureF,DewpointF,PressureIn,WindDirection,WindDirectionDegrees,WindSpeedMPH,WindSpeedGustMPH,Humidity,HourlyPrecipIn,Conditions,Clouds,dailyrainin,SoftwareType,DateUTC
2013-06-02 00:02:00,81.0,-99.9,29.88,South,180,3.0,3.0,60,0.00,,,0.00,,2013-06-02 04:02:00,
2013-06-02 00:13:00,81.0,66.0,29.88,South,180,3.0,3.0,60,0.00,,,0.00,,2013-06-02 04:13:00,
2013-06-02 00:23:00,81.0,66.0,29.88,South,180,3.0,3.0,60,0.00,,,0.00,,2013-06-02 04:23:00,
2013-06-02 00:33:00,81.0,66.0,29.88,South,180,3.0,3.0,60,0.00,,,0.00,,2013-06-02 04:33:00,
2013-06-02 00:42:00,81.0,66.0,29.88,South,180,3.0,3.0,60,0.00,,,0.00,,2013-06-02 04:42:00,
2013-06-02 00:53:00,81.0,66.0,29.88,South,180,3.0,3.0,60,0.00,,,0.00,,2013-06-02 04:53:00,
2013-06-02 01:02:00,81.0,66.0,29.88,South,180,3.0,3.0,60,0.00,,,0.00,,2013-06-02 05:02:00,
2013-06-02 01:12:00,81.0,66.0,29.88,South,180,3.0,3.0,60,0.00,,,0.00,,2013-06-02 05:12:00,
2013-06-02 01:22:00,81.0,66.0,29.88,South,180,3.0,3.0,60,0.00,,,0.00,,2013-06-02 05:22:00,
2013-06-02 01:32:00,81.0,66.0,29.88,South,180,3.0,3.0,60,0.00,,,0.00,,2013-06-02 05:32:00,
2013-06-02 01:42:00,81.0,66.0,29.88,South,180,3.0,3.0,60,0.00,,,0.00,,2013-06-02 05:42:00,
2013-06-02 01:52:00,81.0,66.0,29.88,South,180,3.0,3.0,60,0.00,,,0.00,,2013-06-02 05:52:00,
2013-06-02 02:01:00,81.0,66.0,29.88,South,180,3.0,3.0,60,0.00,,,0.00,,2013-06-02 06:01:00,
2013-06-02 02:12:00,81.0,66.0,29.88,South,180,3.0,3.0,60,0.00,,,0.00,,2013-06-02 06:12:00,
2013-06-02 02:21:00,81.0,66.0,29.88,South,180,3.0,3.0,60,0.00,,,0.00,,2013-06-02 06:21:00,
2013-06-02 02:32:00,81.0,66.0,29.88,South,180,3.0,3.0,60,0.00,,,0.00,,2013-06-02 06:32:00,
2013-06-02 02:42:00,81.0,66.0,29.88,South,180,3.0,3.0,60,0.00,,,0.00,,2013-06-02 06:42:00,
2013-06-02 02:52:00,81.0,66.0,29.88,South,180,3.0,3.0,60,0.00,,,0.00,,2013-06-02 06:52:00,
2013-06-02 03:01:00,81.0,66.0,29.88,South,180,3.0,3.0,60,0.00,,,0.00,,2013-06-02 07:01:00,
2013-06-02 03:11:00,81.0,66.0,29.88,South,180,3.0,3.0,60,0.00,,,0.00,,2013-06-02 07:11:00,
2013-06-02 03:21:00,81.0,66.0,29.88,South,180,3.0,3.0,60,0.00,,,0.00,,2013-06-02 07:21:00,
2013-06-02 03:32:00,81.0,66.0,29.88,South,180,3.0,3.0,60,0.00,,,0.00,,2013-06-02 07:32:00,
2013-06-02 03:42:00,81.0,66.0,29.88,South,180,3.0,3.0,60,0.00,,,0.00,,2013-06-02 07:42:00,
2013-06-02 03:52:00,81.0,66.0,29.88,South,180,3.0,3.0,60,0.00,,,0.00,,2013-06-02 07:52:00,
2013-06-02 04:02:00,81.0,66.0,29.88,South,180,3.0,3.0,60,0.00,,,0.00,,2013-06-02 08:02:00,
2013-06-02 04:12:00,81.0,66.0,29.88,South,180,3.0,3.0,60,0.00,,,0.00,,2013-06-02 08:12:00,
2013-06-02 04:21:00,81.0,66.0,29.88,South,180,3.0,3.0,60,0.00,,,0.00,,2013-06-02 08:21:00,
2013-06-02 04:32:00,81.0,66.0,29.88,South,180,3.0,3.0,60,0.00,,,0.00,,2013-06-02 08:32:00,
2013-06-02 04:42:00,81.0,66.0,29.88,South,180,3.0,3.0,60,0.00,,,0.00,,2013-06-02 08:42:00,
2013-06-02 04:52:00,81.0,66.0,29.88,South,180,3.0,3.0,60,0.00,,,0.00,,2013-06-02 08:52:00,
2013-06-02 05:01:00,81.0,66.0,29.88,South,180,3.0,3.0,60,0.00,,,0.00,,2013-06-02 09:01:00,
2013-06-02 05:11:00,81.0,66.0,29.88,South,180,3.0,3.0,60,0.00,,,0.00,,2013-06-02 09:11:00,
2013-06-02 05:21:00,81.0,66.0,29.88,South,180,3.0,3.0,60,0.00,,,0.00,,2013-06-02 09:21:00,
2013-06-02 05:33:00,81.0,66.0,29.88,South,180,3.0,3.0,60,0.00,,,0.00,,2013-06-02 09:33:00,
2013-06-02 05:42:00,81.0,66.0,29.88,South,180,3.0,3.0,60,0.00,,,0.00,,2013-06-02 09:42:00,
2013-06-02 05:53:00,81.0,66.0,29.88,South,180,3.0,3.0,60,0.00,,,0.00,,2013-06-02 09:53:00,
2013-06-02 06:02:00,81.0,66.0,29.88,South,180,3.0,3.0,60,0.00,,,0.00,,2013-06-02 10:02:00,
2013-06-02 06:12:00,81.0,66.0,29.88,South,180,3.0,3.0,60,0.00,,,0.00,,2013-06-02 10:12:00,
2013-06-02 06:22:00,81.0,66.0,29.88,South,180,3.0,3.0,60,0.00,,,0.00,,2013-06-02 10:22:00,
2013-06-02 06:32:00,81.0,66.0,29.88,South,180,3.0,3.0,60,0.00,,,0.00,,2013-06-02 10:32:00,
2013-06-02 06:42:00,81.0,66.0,29.88,South,180,3.0,3.0,60,0.00,,,0.00,,2013-06-02 10:42:00,
2013-06-02 06:52:00,81.0,66.0,29.88,South,180,3.0,3.0,60,0.00,,,0.00,,2013-06-02 10:52:00,
2013-06-02 07:02:00,81.0,66.0,29.88,South,180,3.0,3.0,60,0.00,,,0.00,,2013-06-02 11:02:00,
2013-06-02 07:12:00,81.0,66.0,29.88,South,180,3.0,3.0,60,0.00,,,0.00,,2013-06-02 11:12:00,
2013-06-02 07:22:00,81.0,66.0,29.88,South,180,3.0,3.0,60,0.00,,,0.00,,2013-06-02 11:22:00,
2013-06-02 07:32:00,81.0,66.0,29.88,South,180,3.0,3.0,60,0.00,,,0.00,,2013-06-02 11:32:00,
2013-06-02 07:42:00,81.0,66.0,29.88,South,180,3.0,3.0,60,0.00,,,0.00,,2013-06-02 11:42:00,
2013-06-02 07:52:00,81.0,66.0,29.88,South,180,3.0,3.0,60,0.00,,,0.00,,2013-06-02 11:52:00,
2013-06-02 08:01:00,81.0,66.0,29.88,South,180,3.0,3.0,60,0.00,,,0.00,,2013-06-02 12:01:00,
2013-06-02 08:11:00,81.0,66.0,29.88,South,180,3.0,3.0,60,0.00,,,0.00,,2013-06-02 12:11:00,
2013-06-02 08:22:00,81.0,66.0,29.88,South,180,3.0,3.0,60,0.00,,,0.00,,2013-06-02 12:22:00,
2013-06-02 08:32:00,81.0,66.0,29.88,South,180,3.0,3.0,60,0.00,,,0.00,,2013-06-02 12:32:00,
2013-06-02 08:42:00,81.0,66.0,29.88,South,180,3.0,3.0,60,0.00,,,0.00,,2013-06-02 12:42:00,
2013-06-02 08:52:00,81.0,66.0,29.88,South,180,3.0,3.0,60,0.00,,,0.00,,2013-06-02 12:52:00,
2013-06-02 09:01:00,81.0,66.0,29.88,South,180,3.0,3.0,60,0.00,,,0.00,,2013-06-02 13:01:00,
2013-06-02 09:12:00,81.0,66.0,29.88,South,180,3.0,3.0,60,0.00,,,0.00,,2013-06-02 13:12:00,
2013-06-02 09:21:00,81.0,66.0,29.88,South,180,3.0,3.0,60,0.00,,,0.00,,2013-06-02 13:21:00,
2013-06-02 09:32:00,81.0,66.0,29.88,South,180,3.0,3.0,60,0.00,,,0.00,,2013-06-02 13:32:00,
2013-06-02 09:42:00,81.0,66.0,29.88,South,180,3.0,3.0,60,0.00,,,0.00,,2013-06-02 13:42:00,
2013-06-02 09:52:00,81.0,66.0,29.88,South,180,3.0,3.0,60,0.00,,,0.00,,2013-06-02 13:52:00,
2013-06-02 10:02:00,81.0,66.0,29.88,South,180,3.0,3.0,60,0.00,,,0.00,,2013-06-02 14:02:00,
2013-06-02 10:11:00,81.0,66.0,29.88,South,180,3.0,3.0,60,0.00,,,0.00,,2013-06-02 14:11:00,
2013-06-02 10:21:00,81.0,66.0,29.88,South,180,3.0,3.0,60,0.00,,,0.00,,2013-06-02 14:21:00,
2013-06-02 10:32:00,81.0,66.0,29.88,South,180,3.0,3.0,60,0.00,,,0.00,,2013-06-02 14:32:00,
2013-06-02 10:42:00,81.0,66.0,29.88,South,180,3.0,3.0,60,0.00,,,0.00,,2013-06-02 14:42:00,
2013-06-02 12:53:00,77.0,66.0,29.82,NE,45,5.0,7.0,70,0.00,,,0.00,,2013-06-02 16:53:00,
2013-06-02 13:02:00,78.0,67.0,29.83,SSE,161,4.0,7.0,70,0.00,,,0.00,,2013-06-02 17:02:00,
2013-06-02 13:12:00,78.0,67.0,29.83,SSE,161,4.0,7.0,70,0.00,,,0.00,,2013-06-02 17:12:00,
2013-06-02 13:23:00,79.0,67.0,29.83,South,174,7.0,10.0,66,0.00,,,0.00,,2013-06-02 17:23:00,
2013-06-02 13:32:00,79.0,67.0,29.83,SSW,204,5.0,10.0,66,0.00,,,0.00,,2013-06-02 17:32:00,
2013-06-02 13:42:00,78.0,66.0,29.81,WSW,252,7.0,13.0,66,0.00,,,0.00,,2013-06-02 17:42:00,
2013-06-02 13:52:00,78.0,66.0,29.81,WSW,252,7.0,13.0,66,0.00,,,0.00,,2013-06-02 17:52:00,
2013-06-02 14:02:00,79.0,67.0,29.81,SSE,167,6.0,14.0,66,0.00,,,0.00,,2013-06-02 18:02:00,
2013-06-02 14:11:00,79.0,67.0,29.81,SSE,167,6.0,14.0,66,0.00,,,0.00,,2013-06-02 18:11:00,
2013-06-02 14:21:00,80.0,67.0,29.81,WNW,282,6.0,13.0,65,0.00,,,0.00,,2013-06-02 18:21:00,
2013-06-02 14:32:00,80.0,67.0,29.81,West,270,7.0,10.0,64,0.00,,,0.00,,2013-06-02 18:32:00,
2013-06-02 14:42:00,82.0,67.0,29.83,West,278,6.0,13.0,61,0.00,,,0.00,,2013-06-02 18:42:00,
2013-06-02 14:52:00,82.0,67.0,29.83,West,278,6.0,13.0,61,0.00,,,0.00,,2013-06-02 18:52:00,
2013-06-02 15:01:00,83.0,67.0,29.84,WSW,248,7.0,13.0,59,0.00,,,0.00,,2013-06-02 19:01:00,
2013-06-02 15:11:00,83.0,67.0,29.84,WSW,248,7.0,13.0,59,0.00,,,0.00,,2013-06-02 19:11:00,
2013-06-02 15:21:00,84.0,67.0,29.85,WSW,257,8.0,15.0,56,0.00,,,0.00,,2013-06-02 19:21:00,
2013-06-02 15:32:00,83.0,66.0,29.85,SSW,205,6.0,10.0,57,0.00,,,0.00,,2013-06-02 19:32:00,
2013-06-02 15:42:00,83.0,66.0,29.85,SSW,205,6.0,10.0,57,0.00,,,0.00,,2013-06-02 19:42:00,
2013-06-02 15:52:00,84.0,65.0,29.84,South,172,8.0,12.0,53,0.00,,,0.00,,2013-06-02 19:52:00,
2013-06-02 16:02:00,85.0,66.0,29.84,SW,234,8.0,12.0,53,0.00,,,0.00,,2013-06-02 20:02:00,
2013-06-02 16:11:00,85.0,66.0,29.84,SW,234,8.0,12.0,53,0.00,,,0.00,,2013-06-02 20:11:00,
2013-06-02 16:22:00,85.0,64.0,29.85,West,261,7.0,14.0,50,0.00,,,0.00,,2013-06-02 20:22:00,
2013-06-02 16:32:00,86.0,64.0,29.85,WSW,248,7.0,13.0,48,0.00,,,0.00,,2013-06-02 20:32:00,
2013-06-02 16:42:00,86.0,64.0,29.85,WSW,248,7.0,13.0,48,0.00,,,0.00,,2013-06-02 20:42:00,
2013-06-02 16:52:00,84.0,64.0,29.82,WSW,239,6.0,13.0,51,0.00,,,0.00,,2013-06-02 20:52:00,
2013-06-02 17:01:00,83.0,64.0,29.80,WSW,257,5.0,10.0,53,0.00,,,0.00,,2013-06-02 21:01:00,
2013-06-02 17:12:00,83.0,64.0,29.80,WSW,257,5.0,10.0,53,0.00,,,0.00,,2013-06-02 21:12:00,
2013-06-02 17:21:00,83.0,65.0,29.81,West,271,5.0,10.0,54,0.00,,,0.00,,2013-06-02 21:21:00,
2013-06-02 17:33:00,82.0,64.0,29.81,WSW,248,5.0,8.0,54,0.00,,,0.00,,2013-06-02 21:33:00,
2013-06-02 17:42:00,82.0,64.0,29.81,WSW,248,5.0,8.0,54,0.00,,,0.00,,2013-06-02 21:42:00,
2013-06-02 17:53:00,81.0,64.0,29.79,West,265,6.0,9.0,56,0.00,,,0.00,,2013-06-02 21:53:00,
2013-06-02 18:03:00,81.0,63.0,29.78,South,170,5.0,6.0,55,0.00,,,0.00,,2013-06-02 22:03:00,
2013-06-02 18:12:00,81.0,63.0,29.78,South,170,5.0,6.0,55,0.00,,,0.00,,2013-06-02 22:12:00,
2013-06-02 18:23:00,80.0,63.0,29.80,SW,234,5.0,8.0,56,0.00,,,0.00,,2013-06-02 22:23:00,
2013-06-02 18:33:00,80.0,62.0,29.80,West,262,6.0,7.0,55,0.00,,,0.00,,2013-06-02 22:33:00,
2013-06-02 18:42:00,80.0,62.0,29.80,West,262,6.0,7.0,55,0.00,,,0.00,,2013-06-02 22:42:00,
2013-06-02 18:53:00,79.0,62.0,29.78,WSW,248,5.0,7.0,57,0.00,,,0.00,,2013-06-02 22:53:00,
2013-06-02 19:02:00,79.0,62.0,29.78,WSW,248,5.0,6.0,57,0.00,,,0.00,,2013-06-02 23:02:00,
2013-06-02 19:12:00,79.0,62.0,29.78,WSW,248,5.0,6.0,57,0.00,,,0.00,,2013-06-02 23:12:00,
2013-06-02 19:22:00,78.0,62.0,29.78,West,266,5.0,8.0,58,0.00,,,0.00,,2013-06-02 23:22:00,
2013-06-02 19:32:00,78.0,62.0,29.78,SW,222,5.0,9.0,59,0.00,,,0.00,,2013-06-02 23:32:00,
2013-06-02 19:42:00,78.0,62.0,29.78,SW,222,5.0,9.0,59,0.00,,,0.00,,2013-06-02 23:42:00,
2013-06-02 19:52:00,77.0,62.0,29.78,WSW,248,3.0,6.0,60,0.00,,,0.00,,2013-06-02 23:52:00,
2013-06-02 20:01:00,77.0,63.0,29.78,WSW,257,5.0,7.0,61,0.00,,,0.00,,2013-06-03 00:01:00,
2013-06-02 20:12:00,76.0,62.0,29.79,WSW,239,2.0,6.0,63,0.00,,,0.00,,2013-06-03 00:12:00,
2013-06-02 20:22:00,76.0,62.0,29.79,WSW,239,2.0,6.0,63,0.00,,,0.00,,2013-06-03 00:22:00,
2013-06-02 20:32:00,76.0,62.0,29.79,West,261,2.0,5.0,63,0.00,,,0.00,,2013-06-03 00:32:00,
2013-06-02 20:42:00,75.0,64.0,29.79,WSW,248,5.0,7.0,68,0.00,,,0.00,,2013-06-03 00:42:00,
2013-06-02 20:52:00,75.0,64.0,29.79,WSW,248,5.0,7.0,68,0.00,,,0.00,,2013-06-03 00:52:00,
2013-06-02 21:01:00,75.0,64.0,29.79,SSW,207,4.0,7.0,69,0.00,,,0.00,,2013-06-03 01:01:00,
2013-06-02 21:11:00,75.0,64.0,29.79,SSW,207,4.0,7.0,69,0.00,,,0.00,,2013-06-03 01:11:00,
2013-06-02 21:21:00,74.0,64.0,29.80,WSW,254,4.0,8.0,70,0.00,,,0.00,,2013-06-03 01:21:00,
2013-06-02 21:32:00,74.0,64.0,29.80,WSW,257,2.0,5.0,71,0.00,,,0.00,,2013-06-03 01:32:00,
2013-06-02 21:42:00,74.0,64.0,29.80,WSW,257,2.0,5.0,71,0.00,,,0.00,,2013-06-03 01:42:00,
2013-06-02 21:52:00,73.0,64.0,29.80,WSW,241,3.0,6.0,73,0.00,,,0.00,,2013-06-03 01:52:00,
2013-06-02 22:02:00,73.0,64.0,29.81,WSW,257,3.0,6.0,73,0.00,,,0.00,,2013-06-03 02:02:00,
2013-06-02 22:12:00,73.0,64.0,29.81,WSW,257,3.0,6.0,73,0.00,,,0.00,,2013-06-03 02:12:00,
2013-06-02 22:22:00,73.0,64.0,29.81,West,270,3.0,6.0,74,0.00,,,0.00,,2013-06-03 02:22:00,
2013-06-02 22:32:00,72.0,63.0,29.81,WSW,243,2.0,5.0,74,0.00,,,0.00,,2013-06-03 02:32:00,
2013-06-02 22:42:00,72.0,63.0,29.81,WSW,243,2.0,5.0,74,0.00,,,0.00,,2013-06-03 02:42:00,
2013-06-02 22:52:00,72.0,64.0,29.81,WSW,239,2.0,3.0,75,0.00,,,0.00,,2013-06-03 02:52:00,
2013-06-02 23:02:00,72.0,64.0,29.81,SSW,210,1.0,2.0,75,0.00,,,0.00,,2013-06-03 03:02:00,
2013-06-02 23:12:00,72.0,64.0,29.81,SSW,210,1.0,2.0,75,0.00,,,0.00,,2013-06-03 03:12:00,
2013-06-02 23:22:00,71.0,63.0,29.82,SW,231,0.0,2.0,76,0.00,,,0.00,,2013-06-03 03:22:00,
2013-06-02 23:33:00,71.0,63.0,29.82,WSW,248,1.0,2.0,76,0.00,,,0.00,,2013-06-03 03:33:00,
2013-06-02 23:43:00,71.0,63.0,29.82,WSW,248,1.0,2.0,76,0.00,,,0.00,,2013-06-03 03:43:00,
2013-06-02 23:53:00,71.0,63.0,29.82,WSW,248,1.0,3.0,76,0.00,,,0.00,,2013-06-03 03:53:00,